Location: B?dimalle
(17.1788°N, 80.5377°E)
Time: 10:13:24
(UTC+00:00)

Tiros 1 despin weight - Pass Details

Date: 18 February 2026
Orbit: 556 x 593 km, 48.2° (Epoch: 10 March)

Event Time Altitude Azimuth Distance (km) Brightness Sun altitude
Rises 08:54:16 0° 267° (W) 2,748 ? 48.3°
Reaches altitude 10° 08:58:06 10° 302° (WNW) 1,843 ? 47.6°
Maximum altitude 08:59:26 11° 320° (NW) 1,758 ? 47.3°
Drops below altitude 10° 09:00:46 10° 339° (NNW) 1,838 ? 47.1°
Sets 09:04:36 0° 15° (NNE) 2,727 ? 46.4°
